EW8032 Weather Reports


Display with metric or nautical units.
time (UTC)temp
F
wind
direction
speed
MPH
gust
MPH
rain 1hr
in
rain 24hr
in
rain mn
in
humidity
%
barometer
mb
20260831203926 67 313 0.0 2.0 0.00 0.00 0.00 80 1022.8
20260831203510 67 313 0.0 2.0 0.00 0.00 0.00 79 1022.8
20260831203354 67 313 0.0 2.0 0.00 0.00 0.00 79 1022.8
20260831203249 67 313 0.0 2.0 0.00 0.00 0.00 78 1022.7
20260831203125 67 313 0.0 2.0 0.00 0.00 0.00 78 1022.7
20260831203053 67 313 1.0 2.0 0.00 0.00 0.00 78 1022.6
20260831203010 67 313 0.0 2.0 0.00 0.00 0.00 78 1022.7
20260831202852 67 313 0.0 0.0 0.00 0.00 0.00 78 1022.7
20260831202757 68 313 0.0 1.0 0.00 0.00 0.00 78 1022.7
20260831202722 68 313 0.0 1.0 0.00 0.00 0.00 78 1022.7
20260831202357 68 313 0.0 1.0 0.00 0.00 0.00 78 1022.7
20260831202321 68 313 0.0 1.0 0.00 0.00 0.00 78 1022.6
20260831202216 68 313 0.0 1.0 0.00 0.00 0.00 77 1022.7
20260831202044 68 313 0.0 2.0 0.00 0.00 0.00 77 1022.7
20260831202000 68 313 0.0 2.0 0.00 0.00 0.00 77 1022.7
20260831201850 68 313 0.0 2.0 0.00 0.00 0.00 77 1022.7
20260831201814 68 313 1.0 2.0 0.00 0.00 0.00 77 1022.6
20260831201732 68 313 1.0 2.0 0.00 0.00 0.00 77 1022.7
20260831201606 68 313 0.0 2.0 0.00 0.00 0.00 77 1022.6
20260831201247 68 331 0.0 2.0 0.00 0.00 0.00 77 1022.5
20260831201207 68 331 0.0 2.0 0.00 0.00 0.00 76 1022.5
20260831201053 68 331 0.0 2.0 0.00 0.00 0.00 76 1022.5
20260831201029 68 331 0.0 4.0 0.00 0.00 0.00 76 1022.4
20260831200618 68 331 1.0 5.0 0.00 0.00 0.00 76 1022.5
20260831200509 69 331 1.0 5.0 0.00 0.00 0.00 76 1022.5
20260831200451 69 331 1.0 5.0 0.00 0.00 0.00 76 1022.3
20260831200004 69 331 2.0 6.0 0.00 0.00 0.00 75 1022.4
20260831195930 69 307 2.0 6.0 0.00 0.00 0.00 75 1022.3
20260831195833 69 306 2.0 6.0 0.00 0.00 0.00 75 1022.4
20260831195646 69 332 2.0 6.0 0.00 0.00 0.00 75 1022.4
20260831195255 69 318 1.0 3.0 0.00 0.00 0.00 75 1022.3
20260831195130 69 288 1.0 3.0 0.00 0.00 0.00 75 1022.3
20260831194952 69 319 1.0 4.0 0.00 0.00 0.00 75 1022.3
20260831194923 69 315 1.0 4.0 0.00 0.00 0.00 75 1022.3
20260831194835 69 315 1.0 4.0 0.00 0.00 0.00 75 1022.3
20260831194731 69 315 1.0 4.0 0.00 0.00 0.00 75 1022.3
20260831194627 69 315 1.0 4.0 0.00 0.00 0.00 74 1022.2
20260831194237 69 313 2.0 4.0 0.00 0.00 0.00 74 1022.3
20260831194109 69 336 1.0 3.0 0.00 0.00 0.00 74 1022.3
20260831194045 69 336 1.0 3.0 0.00 0.00 0.00 74 1022.3
20260831194007 69 319 1.0 3.0 0.00 0.00 0.00 74 1022.3
20260831193848 69 319 1.0 3.0 0.00 0.00 0.00 73 1022.2
20260831193132 70 331 1.0 3.0 0.00 0.00 0.00 73 1022.2
20260831192735 70 331 2.0 3.0 0.00 0.00 0.00 73 1022.1
20260831192305 70 322 1.0 3.0 0.00 0.00 0.00 73 1022.1
20260831192133 70 322 1.0 3.0 0.00 0.00 0.00 72 1022.0
20260831192003 70 303 1.0 3.0 0.00 0.00 0.00 72 1022.0
20260831191855 70 303 1.0 3.0 0.00 0.00 0.00 72 1021.9
20260831191827 70 303 1.0 3.0 0.00 0.00 0.00 72 1022.0
20260831191742 71 303 1.0 3.0 0.00 0.00 0.00 72 1021.9
20260831191615 71 333 2.0 3.0 0.00 0.00 0.00 72 1021.8
20260831191518 71 335 1.0 3.0 0.00 0.00 0.00 71 1021.9
20260831191447 71 331 1.0 3.0 0.00 0.00 0.00 71 1021.9
20260831191329 71 331 1.0 3.0 0.00 0.00 0.00 71 1021.9
20260831191211 71 316 1.0 3.0 0.00 0.00 0.00 71 1021.8
20260831191148 71 316 1.0 3.0 0.00 0.00 0.00 71 1021.8
20260831191107 71 316 1.0 3.0 0.00 0.00 0.00 71 1021.8
20260831190936 71 330 1.0 2.0 0.00 0.00 0.00 71 1021.9
20260831190835 72 330 1.0 2.0 0.00 0.00 0.00 70 1021.9
20260831190810 72 330 1.0 2.0 0.00 0.00 0.00 70 1021.8
20260831190637 72 330 1.0 2.0 0.00 0.00 0.00 70 1021.8
20260831190315 72 330 1.0 2.0 0.00 0.00 0.00 70 1021.8
20260831190211 72 330 1.0 2.0 0.00 0.00 0.00 70 1021.8
20260831190036 72 330 1.0 2.0 0.00 0.00 0.00 70 1021.8
20260831185928 72 330 2.0 2.0 0.00 0.00 0.00 69 1021.9
20260831185917 72 330 1.0 2.0 0.00 0.00 0.00 69 1021.9
20260831185814 72 330 1.0 3.0 0.00 0.00 0.00 69 1021.8
20260831185348 72 330 1.0 3.0 0.00 0.00 0.00 69 1021.8
20260831185315 72 330 1.0 3.0 0.00 0.00 0.00 69 1021.9
20260831185146 73 330 1.0 3.0 0.00 0.00 0.00 69 1022.0
20260831185029 73 327 2.0 3.0 0.00 0.00 0.00 69 1021.9
20260831184847 73 310 1.0 3.0 0.00 0.00 0.00 70 1021.8
20260831184736 73 310 1.0 3.0 0.00 0.00 0.00 69 1021.8
20260831184659 73 310 1.0 3.0 0.00 0.00 0.00 70 1021.8
20260831184616 73 288 2.0 3.0 0.00 0.00 0.00 70 1021.8
20260831184439 73 288 1.0 3.0 0.00 0.00 0.00 69 1021.9
20260831184104 73 311 1.0 3.0 0.00 0.00 0.00 70 1021.9
20260831183948 73 311 1.0 3.0 0.00 0.00 0.00 70 1021.8
20260831183815 73 319 1.0 3.0 0.00 0.00 0.00 69 1021.8
20260831183724 73 332 1.0 2.0 0.00 0.00 0.00 70 1021.8
20260831183643 73 340 1.0 2.0 0.00 0.00 0.00 69 1021.8
20260831183520 73 340 1.0 2.0 0.00 0.00 0.00 69 1021.8
20260831183351 73 340 0.0 2.0 0.00 0.00 0.00 69 1021.8
20260831183243 74 340 0.0 2.0 0.00 0.00 0.00 69 1021.8
20260831183118 74 340 1.0 2.0 0.00 0.00 0.00 69 1021.8
20260831183044 74 340 1.0 3.0 0.00 0.00 0.00 68 1021.7
20260831182958 74 340 1.0 3.0 0.00 0.00 0.00 68 1021.7
20260831182847 74 340 1.0 4.0 0.00 0.00 0.00 68 1021.7
20260831182751 74 340 1.0 4.0 0.00 0.00 0.00 68 1021.8
20260831182726 74 340 1.0 4.0 0.00 0.00 0.00 68 1021.7
20260831182614 74 340 1.0 4.0 0.00 0.00 0.00 68 1021.8
20260831182509 74 340 2.0 4.0 0.00 0.00 0.00 68 1021.8
20260831182455 74 336 2.0 4.0 0.00 0.00 0.00 68 1021.7
20260831182336 74 336 2.0 4.0 0.00 0.00 0.00 68 1021.6
20260831182217 74 323 1.0 2.0 0.00 0.00 0.00 67 1021.7
20260831182118 74 322 1.0 2.0 0.00 0.00 0.00 67 1021.7
20260831181705 74 322 1.0 3.0 0.00 0.00 0.00 67 1021.6
20260831181547 74 322 0.0 3.0 0.00 0.00 0.00 66 1021.6
20260831181536 74 322 1.0 3.0 0.00 0.00 0.00 66 1021.6
20260831181420 75 322 1.0 3.0 0.00 0.00 0.00 66 1021.7
20260831181311 75 322 1.0 3.0 0.00 0.00 0.00 66 1021.7
20260831181228 75 322 0.0 3.0 0.00 0.00 0.00 66 1021.6
20260831181144 75 322 0.0 3.0 0.00 0.00 0.00 65 1021.7
20260831181017 75 318 0.0 2.0 0.00 0.00 0.00 65 1021.6
20260831180902 75 318 0.0 2.0 0.00 0.00 0.00 65 1021.7
20260831180850 75 318 1.0 2.0 0.00 0.00 0.00 65 1021.7
20260831180747 75 318 0.0 2.0 0.00 0.00 0.00 65 1021.7
20260831180634 75 321 1.0 2.0 0.00 0.00 0.00 65 1021.7
20260831180551 75 321 1.0 2.0 0.00 0.00 0.00 65 1021.7
20260831180210 75 321 1.0 2.0 0.00 0.00 0.00 65 1021.7
20260831180043 75 321 1.0 2.0 0.00 0.00 0.00 64 1021.7
20260831175946 75 321 1.0 2.0 0.00 0.00 0.00 64 1021.6
20260831175830 76 321 1.0 2.0 0.00 0.00 0.00 64 1021.7
20260831175455 76 321 1.0 4.0 0.00 0.00 0.00 63 1021.6
20260831175339 76 323 1.0 4.0 0.00 0.00 0.00 63 1021.6
20260831175234 76 323 1.0 4.0 0.00 0.00 0.00 63 1021.7
20260831175114 76 323 1.0 4.0 0.00 0.00 0.00 63 1021.7
20260831175000 76 290 2.0 5.0 0.00 0.00 0.00 62 1021.6
20260831174909 76 286 2.0 5.0 0.00 0.00 0.00 62 1021.7
20260831174826 76 281 2.0 5.0 0.00 0.00 0.00 62 1021.7
20260831174306 77 300 2.0 5.0 0.00 0.00 0.00 61 1021.8
20260831173756 77 309 2.0 4.0 0.00 0.00 0.00 59 1021.8
20260831173659 77 303 2.0 4.0 0.00 0.00 0.00 59 1021.7
20260831173618 77 303 2.0 4.0 0.00 0.00 0.00 59 1021.8
20260831173445 77 284 2.0 5.0 0.00 0.00 0.00 59 1021.8
20260831172749 78 275 2.0 5.0 0.00 0.00 0.00 59 1021.7
20260831172628 78 304 2.0 5.0 0.00 0.00 0.00 58 1021.7
20260831172547 78 304 2.0 5.0 0.00 0.00 0.00 58 1021.7
20260831172143 78 340 2.0 4.0 0.00 0.00 0.00 58 1021.7
20260831172017 78 306 2.0 6.0 0.00 0.00 0.00 58 1021.7
20260831171512 78 310 2.0 6.0 0.00 0.00 0.00 60 1021.7
20260831171416 78 311 3.0 6.0 0.00 0.00 0.00 59 1021.8
20260831171330 78 346 3.0 6.0 0.00 0.00 0.00 59 1021.7
20260831171201 78 352 2.0 6.0 0.00 0.00 0.00 58 1021.8
20260831170839 78 289 2.0 5.0 0.00 0.00 0.00 59 1021.7
20260831170707 78 295 2.0 6.0 0.00 0.00 0.00 59 1021.8
20260831170549 78 295 2.0 6.0 0.00 0.00 0.00 58 1021.7
20260831170255 78 291 3.0 6.0 0.00 0.00 0.00 58 1021.8
20260831170119 78 315 4.0 8.0 0.00 0.00 0.00 58 1021.8
20260831165652 78 302 3.0 8.0 0.00 0.00 0.00 59 1021.8
20260831165252 78 292 2.0 8.0 0.00 0.00 0.00 59 1021.8
20260831164822 78 317 3.0 8.0 0.00 0.00 0.00 59 1021.8
20260831164804 78 331 3.0 8.0 0.00 0.00 0.00 59 1021.9
20260831164643 78 304 3.0 7.0 0.00 0.00 0.00 59 1021.8
20260831164259 78 320 3.0 7.0 0.00 0.00 0.00 59 1021.8
20260831163859 78 294 2.0 8.0 0.00 0.00 0.00 59 1021.8
20260831163734 78 295 3.0 8.0 0.00 0.00 0.00 59 1021.8
20260831163701 78 306 3.0 8.0 0.00 0.00 0.00 59 1021.8
20260831163545 78 293 3.0 8.0 0.00 0.00 0.00 58 1021.9
20260831162701 78 327 2.0 8.0 0.00 0.00 0.00 59 1021.8
20260831162646 78 327 2.0 8.0 0.00 0.00 0.00 59 1021.8
20260831162543 78 307 3.0 9.0 0.00 0.00 0.00 59 1021.8
20260831162355 79 281 4.0 10.0 0.00 0.00 0.00 59 1021.8
20260831162236 79 239 5.0 10.0 0.00 0.00 0.00 58 1021.9
20260831161830 79 276 4.0 10.0 0.00 0.00 0.00 59 1021.9
20260831161647 79 242 5.0 10.0 0.00 0.00 0.00 58 1021.8
20260831161619 79 238 5.0 10.0 0.00 0.00 0.00 60 1021.8
20260831161458 79 275 5.0 11.0 0.00 0.00 0.00 59 1021.9
20260831161317 79 232 6.0 11.0 0.00 0.00 0.00 60 1021.8
20260831161008 78 256 6.0 11.0 0.00 0.00 0.00 58 1021.7
20260831160829 78 271 4.0 11.0 0.00 0.00 0.00 60 1021.8
20260831160647 78 260 6.0 11.0 0.00 0.00 0.00 60 1021.8
20260831155954 78 275 5.0 9.0 0.00 0.00 0.00 60 1022.0
20260831155433 78 282 3.0 6.0 0.00 0.00 0.00 62 1021.9
20260831155414 78 239 3.0 5.0 0.00 0.00 0.00 62 1021.9
20260831155249 78 228 3.0 5.0 0.00 0.00 0.00 62 1021.9
20260831155108 78 250 2.0 4.0 0.00 0.00 0.00 62 1022.0
20260831155003 78 211 2.0 7.0 0.00 0.00 0.00 63 1022.0
20260831154618 78 215 1.0 9.0 0.00 0.00 0.00 62 1021.9
20260831154433 78 224 2.0 10.0 0.00 0.00 0.00 62 1021.9
20260831154316 78 246 2.0 10.0 0.00 0.00 0.00 61 1021.9
20260831154134 78 239 5.0 10.0 0.00 0.00 0.00 61 1021.9
20260831154036 78 281 5.0 10.0 0.00 0.00 0.00 60 1021.9
20260831153600 79 221 5.0 10.0 0.00 0.00 0.00 59 1021.9
20260831153419 79 278 6.0 10.0 0.00 0.00 0.00 60 1021.9
20260831153403 79 250 6.0 10.0 0.00 0.00 0.00 60 1021.9
20260831153234 79 269 4.0 10.0 0.00 0.00 0.00 59 1021.9
20260831153052 79 267 4.0 10.0 0.00 0.00 0.00 59 1022.0
20260831152956 79 206 4.0 10.0 0.00 0.00 0.00 58 1021.9
20260831152904 79 226 5.0 10.0 0.00 0.00 0.00 59 1021.9
20260831152720 79 295 6.0 8.0 0.00 0.00 0.00 59 1022.0
20260831152538 79 293 3.0 8.0 0.00 0.00 0.00 60 1022.0
20260831152112 78 232 3.0 8.0 0.00 0.00 0.00 61 1021.9
20260831152024 78 259 4.0 8.0 0.00 0.00 0.00 60 1022.0
20260831151934 78 308 4.0 8.0 0.00 0.00 0.00 60 1022.0
20260831151746 78 268 3.0 9.0 0.00 0.00 0.00 60 1022.0
20260831151307 78 276 5.0 9.0 0.00 0.00 0.00 61 1022.1
20260831150841 78 266 5.0 10.0 0.00 0.00 0.00 62 1022.1
20260831150657 78 248 5.0 11.0 0.00 0.00 0.00 62 1022.1
20260831150240 77 254 2.0 11.0 0.00 0.00 0.00 63 1022.1
20260831145811 77 292 7.0 13.0 0.00 0.00 0.00 63 1022.1
20260831145623 77 292 7.0 13.0 0.00 0.00 0.00 63 1022.1
20260831145431 77 240 6.0 13.0 0.00 0.00 0.00 63 1022.2
20260831145237 77 242 7.0 13.0 0.00 0.00 0.00 63 1022.1
20260831144921 78 272 5.0 9.0 0.00 0.00 0.00 63 1022.2
20260831144834 78 259 6.0 9.0 0.00 0.00 0.00 62 1022.3
20260831144423 78 228 3.0 6.0 0.00 0.00 0.00 64 1022.2
20260831143935 77 214 1.0 7.0 0.00 0.00 0.00 65 1022.2
20260831143542 77 229 2.0 8.0 0.00 0.00 0.00 65 1022.3
20260831143405 76 265 3.0 8.0 0.00 0.00 0.00 65 1022.3
20260831143212 76 277 3.0 8.0 0.00 0.00 0.00 64 1022.3
20260831143029 76 276 3.0 8.0 0.00 0.00 0.00 64 1022.3
20260831142841 76 281 6.0 8.0 0.00 0.00 0.00 64 1022.4
20260831142746 76 279 4.0 8.0 0.00 0.00 0.00 64 1022.3
20260831142654 76 260 4.0 7.0 0.00 0.00 0.00 63 1022.3
20260831142522 76 280 5.0 10.0 0.00 0.00 0.00 64 1022.4
20260831142337 76 285 4.0 10.0 0.00 0.00 0.00 65 1022.4
20260831142151 75 296 2.0 10.0 0.00 0.00 0.00 66 1022.4
20260831142024 75 309 5.0 12.0 0.00 0.00 0.00 67 1022.4
20260831141941 75 309 7.0 12.0 0.00 0.00 0.00 67 1022.4
20260831141858 75 309 6.0 12.0 0.00 0.00 0.00 67 1022.5
20260831141702 75 261 6.0 12.0 0.00 0.00 0.00 67 1022.5
20260831141228 75 268 8.0 12.0 0.00 0.00 0.00 67 1022.5
20260831141047 75 280 6.0 10.0 0.00 0.00 0.00 68 1022.5
20260831140657 75 261 7.0 11.0 0.00 0.00 0.00 67 1022.5
20260831140513 75 276 5.0 11.0 0.00 0.00 0.00 68 1022.6
20260831140324 75 256 4.0 11.0 0.00 0.00 0.00 68 1022.5
20260831140142 75 296 6.0 11.0 0.00 0.00 0.00 68 1022.5
20260831140008 75 265 6.0 11.0 0.00 0.00 0.00 68 1022.4
20260831135913 75 261 6.0 11.0 0.00 0.00 0.00 68 1022.5
20260831135821 75 263 5.0 11.0 0.00 0.00 0.00 67 1022.5
20260831135638 75 238 5.0 11.0 0.00 0.00 0.00 68 1022.5
20260831135454 76 252 6.0 11.0 0.00 0.00 0.00 68 1022.5
20260831135054 76 283 7.0 11.0 0.00 0.00 0.00 67 1022.5
20260831134306 76 237 2.0 10.0 0.00 0.00 0.00 69 1022.5
20260831133746 75 269 8.0 10.0 0.00 0.00 0.00 69 1022.6
20260831133656 75 278 6.0 10.0 0.00 0.00 0.00 69 1022.5
20260831133606 75 281 4.0 10.0 0.00 0.00 0.00 70 1022.6
20260831133422 75 265 6.0 10.0 0.00 0.00 0.00 71 1022.6
20260831133230 75 271 6.0 10.0 0.00 0.00 0.00 70 1022.5
20260831133049 75 254 6.0 9.0 0.00 0.00 0.00 70 1022.6
20260831132906 74 261 4.0 9.0 0.00 0.00 0.00 71 1022.6
20260831132817 75 313 5.0 9.0 0.00 0.00 0.00 71 1022.6
20260831132725 75 281 4.0 9.0 0.00 0.00 0.00 70 1022.6
20260831132546 75 329 3.0 9.0 0.00 0.00 0.00 71 1022.7
20260831132408 75 352 4.0 9.0 0.00 0.00 0.00 70 1022.7
20260831132226 75 304 4.0 9.0 0.00 0.00 0.00 70 1022.7
20260831132044 75 311 4.0 10.0 0.00 0.00 0.00 71 1022.7
20260831131958 75 311 6.0 10.0 0.00 0.00 0.00 70 1022.6
20260831131906 75 294 5.0 10.0 0.00 0.00 0.00 70 1022.7
20260831131427 75 291 5.0 12.0 0.00 0.00 0.00 70 1022.6
20260831131419 75 291 5.0 12.0 0.00 0.00 0.00 70 1022.6
20260831131240 75 271 4.0 12.0 0.00 0.00 0.00 71 1022.6
20260831131104 75 303 9.0 12.0 0.00 0.00 0.00 71 1022.6
20260831130643 75 294 2.0 9.0 0.00 0.00 0.00 72 1022.7
20260831125928 74 309 2.0 16.0 0.00 0.00 0.00 72 1022.8
20260831125801 75 322 2.0 16.0 0.00 0.00 0.00 72 1022.8
20260831125522 75 315 4.0 16.0 0.00 0.00 0.00 70 1022.8
20260831125339 75 308 6.0 16.0 0.00 0.00 0.00 69 1022.8
20260831124853 76 279 5.0 11.0 0.00 0.00 0.00 68 1022.7
20260831123724 76 206 3.0 9.0 0.00 0.00 0.00 69 1022.7
20260831123302 75 252 3.0 9.0 0.00 0.00 0.00 69 1022.7
20260831123143 75 292 4.0 10.0 0.00 0.00 0.00 69 1022.7
20260831123004 75 298 5.0 10.0 0.00 0.00 0.00 69 1022.7
20260831122851 75 263 4.0 10.0 0.00 0.00 0.00 69 1022.7
20260831122826 75 313 4.0 10.0 0.00 0.00 0.00 69 1022.7
20260831122629 75 261 5.0 10.0 0.00 0.00 0.00 67 1022.7
20260831122445 75 275 8.0 10.0 0.00 0.00 0.00 66 1022.7
20260831122420 75 273 7.0 10.0 0.00 0.00 0.00 66 1022.8
20260831122250 75 276 6.0 10.0 0.00 0.00 0.00 67 1022.7
20260831121742 76 271 6.0 10.0 0.00 0.00 0.00 69 1022.8
20260831121310 76 285 4.0 9.0 0.00 0.00 0.00 68 1022.8
20260831120848 76 294 5.0 9.0 0.00 0.00 0.00 68 1022.7
20260831120712 76 271 2.0 9.0 0.00 0.00 0.00 67 1022.8
20260831120534 76 167 3.0 9.0 0.00 0.00 0.00 67 1022.7
20260831120411 76 243 2.0 9.0 0.00 0.00 0.00 68 1022.7
20260831120346 76 265 2.0 9.0 0.00 0.00 0.00 69 1022.7
20260831120154 76 312 4.0 9.0 0.00 0.00 0.00 68 1022.7
20260831120017 76 243 2.0 9.0 0.00 0.00 0.00 68 1022.7
20260831115609 76 299 4.0 8.0 0.00 0.00 0.00 69 1022.7
20260831115426 76 244 4.0 8.0 0.00 0.00 0.00 68 1022.6
20260831115318 76 271 2.0 7.0 0.00 0.00 0.00 67 1022.6
20260831115247 76 221 2.0 7.0 0.00 0.00 0.00 67 1022.7
20260831115056 76 283 3.0 7.0 0.00 0.00 0.00 67 1022.6
20260831114912 76 286 2.0 5.0 0.00 0.00 0.00 68 1022.7
20260831114849 76 287 2.0 5.0 0.00 0.00 0.00 68 1022.7
20260831114334 76 26 1.0 5.0 0.00 0.00 0.00 67 1022.6
20260831114007 76 26 0.0 7.0 0.00 0.00 0.00 68 1022.7
20260831113842 75 140 3.0 8.0 0.00 0.00 0.00 69 1022.6
20260831113653 75 193 1.0 8.0 0.00 0.00 0.00 70 1022.7
20260831113632 75 42 2.0 8.0 0.00 0.00 0.00 70 1022.7
20260831113445 75 146 3.0 8.0 0.00 0.00 0.00 68 1022.7
20260831113302 75 290 2.0 8.0 0.00 0.00 0.00 69 1022.7
20260831113157 75 189 5.0 8.0 0.00 0.00 0.00 68 1022.7
20260831113117 75 281 5.0 8.0 0.00 0.00 0.00 68 1022.7
20260831112928 75 280 5.0 8.0 0.00 0.00 0.00 68 1022.7
20260831112744 75 290 3.0 7.0 0.00 0.00 0.00 70 1022.8
20260831112733 75 288 2.0 7.0 0.00 0.00 0.00 70 1022.8
20260831112546 75 236 2.0 8.0 0.00 0.00 0.00 70 1022.8
20260831112417 74 265 1.0 8.0 0.00 0.00 0.00 69 1022.8
20260831112026 74 304 2.0 8.0 0.00 0.00 0.00 69 1022.8
20260831111902 74 304 4.0 8.0 0.00 0.00 0.00 70 1022.8
20260831111733 74 307 4.0 8.0 0.00 0.00 0.00 69 1022.8
20260831111534 74 274 2.0 8.0 0.00 0.00 0.00 71 1022.8
20260831111401 74 267 3.0 8.0 0.00 0.00 0.00 71 1022.8
20260831111311 74 288 3.0 8.0 0.00 0.00 0.00 71 1022.8
20260831111227 74 280 4.0 8.0 0.00 0.00 0.00 72 1022.8
20260831110636 74 287 3.0 10.0 0.00 0.00 0.00 72 1022.8
20260831110446 74 254 3.0 10.0 0.00 0.00 0.00 73 1022.8
20260831110300 73 278 4.0 10.0 0.00 0.00 0.00 73 1022.8
20260831110207 73 292 7.0 10.0 0.00 0.00 0.00 73 1022.8
20260831110108 73 281 7.0 10.0 0.00 0.00 0.00 73 1022.8
20260831105925 73 275 5.0 10.0 0.00 0.00 0.00 73 1022.8
20260831105741 73 264 4.0 9.0 0.00 0.00 0.00 73 1022.9
20260831105544 73 290 4.0 10.0 0.00 0.00 0.00 73 1022.8
20260831105409 73 273 6.0 10.0 0.00 0.00 0.00 73 1022.8
20260831105313 73 261 5.0 10.0 0.00 0.00 0.00 72 1022.8
20260831105208 73 299 6.0 10.0 0.00 0.00 0.00 72 1022.9
20260831105025 74 313 7.0 10.0 0.00 0.00 0.00 72 1022.9
20260831104628 74 267 5.0 10.0 0.00 0.00 0.00 72 1022.9
20260831104436 74 302 2.0 7.0 0.00 0.00 0.00 72 1022.8
20260831104309 74 235 2.0 7.0 0.00 0.00 0.00 72 1022.7
20260831104213 74 235 3.0 7.0 0.00 0.00 0.00 71 1022.8
20260831103732 74 266 4.0 7.0 0.00 0.00 0.00 71 1022.9
20260831103335 74 274 2.0 7.0 0.00 0.00 0.00 71 1022.8
20260831103143 74 234 0.0 3.0 0.00 0.00 0.00 71 1022.9
20260831103024 74 297 2.0 6.0 0.00 0.00 0.00 70 1022.8
20260831102947 74 293 1.0 6.0 0.00 0.00 0.00 70 1022.8
20260831102843 74 276 0.0 6.0 0.00 0.00 0.00 71 1022.8
20260831102721 74 211 0.0 6.0 0.00 0.00 0.00 71 1022.8
20260831102611 74 211 1.0 6.0 0.00 0.00 0.00 70 1022.9
20260831102606 74 211 1.0 6.0 0.00 0.00 0.00 71 1022.9
20260831102439 74 213 3.0 6.0 0.00 0.00 0.00 71 1022.8
20260831101706 74 282 1.0 4.0 0.00 0.00 0.00 71 1022.9
20260831101600 74 225 1.0 8.0 0.00 0.00 0.00 71 1022.8
20260831101227 74 152 1.0 8.0 0.00 0.00 0.00 72 1022.8
20260831101049 74 246 2.0 8.0 0.00 0.00 0.00 71 1022.9
20260831100622 74 328 5.0 8.0 0.00 0.00 0.00 70 1022.8
20260831100515 74 304 5.0 8.0 0.00 0.00 0.00 72 1022.9
20260831100333 74 292 2.0 7.0 0.00 0.00 0.00 74 1022.8
20260831100207 74 176 3.0 7.0 0.00 0.00 0.00 73 1022.8
20260831095735 73 144 2.0 7.0 0.00 0.00 0.00 74 1022.9
20260831095552 73 159 2.0 6.0 0.00 0.00 0.00 74 1022.9
20260831094754 73 193 1.0 6.0 0.00 0.00 0.00 74 1022.8
20260831094644 73 273 3.0 6.0 0.00 0.00 0.00 74 1022.9
20260831094627 73 273 3.0 7.0 0.00 0.00 0.00 74 1022.8
20260831094445 72 267 1.0 7.0 0.00 0.00 0.00 75 1022.9
20260831094312 72 192 1.0 7.0 0.00 0.00 0.00 76 1022.9
20260831094244 72 192 1.0 7.0 0.00 0.00 0.00 76 1022.8
20260831094140 72 203 1.0 7.0 0.00 0.00 0.00 76 1022.9
20260831094005 72 223 3.0 9.0 0.00 0.00 0.00 77 1022.9
20260831093613 72 269 2.0 9.0 0.00 0.00 0.00 77 1022.9
20260831093421 72 224 2.0 9.0 0.00 0.00 0.00 76 1022.9
20260831093245 72 259 5.0 9.0 0.00 0.00 0.00 76 1022.9
20260831093219 72 241 6.0 9.0 0.00 0.00 0.00 76 1022.9
20260831093047 72 252 4.0 9.0 0.00 0.00 0.00 77 1022.9
20260831092910 72 244 3.0 9.0 0.00 0.00 0.00 77 1022.9
20260831092748 72 254 4.0 9.0 0.00 0.00 0.00 77 1022.9
20260831092718 72 259 4.0 9.0 0.00 0.00 0.00 77 1022.8
20260831092528 72 275 6.0 9.0 0.00 0.00 0.00 76 1022.9
20260831092341 72 261 6.0 9.0 0.00 0.00 0.00 76 1022.9
20260831092307 72 279 6.0 9.0 0.00 0.00 0.00 76 1022.8
20260831092139 73 258 6.0 9.0 0.00 0.00 0.00 76 1022.8
20260831091959 73 247 5.0 9.0 0.00 0.00 0.00 75 1022.8
20260831091842 73 261 2.0 9.0 0.00 0.00 0.00 77 1022.8
20260831091811 73 262 2.0 7.0 0.00 0.00 0.00 77 1022.7
20260831091638 73 262 1.0 7.0 0.00 0.00 0.00 77 1022.7
20260831091522 72 262 1.0 7.0 0.00 0.00 0.00 78 1022.8
20260831091502 72 250 1.0 7.0 0.00 0.00 0.00 78 1022.8
20260831091339 72 221 2.0 8.0 0.00 0.00 0.00 78 1022.8
20260831091212 72 271 1.0 8.0 0.00 0.00 0.00 78 1022.7
20260831090827 72 275 1.0 8.0 0.00 0.00 0.00 78 1022.8
20260831090655 72 275 2.0 9.0 0.00 0.00 0.00 78 1022.7
20260831090528 71 242 4.0 10.0 0.00 0.00 0.00 78 1022.7
20260831090117 71 240 3.0 10.0 0.00 0.00 0.00 77 1022.8
20260831085935 71 229 3.0 10.0 0.00 0.00 0.00 77 1022.7
20260831085542 72 254 5.0 10.0 0.00 0.00 0.00 77 1022.7
20260831085349 72 256 6.0 10.0 0.00 0.00 0.00 78 1022.7
20260831085213 72 309 5.0 8.0 0.00 0.00 0.00 77 1022.7
20260831084804 72 285 4.0 8.0 0.00 0.00 0.00 77 1022.8
20260831084622 72 260 4.0 8.0 0.00 0.00 0.00 78 1022.7
20260831084505 71 279 4.0 7.0 0.00 0.00 0.00 79 1022.7
20260831084430 71 242 4.0 7.0 0.00 0.00 0.00 79 1022.6
20260831083615 71 273 1.0 4.0 0.00 0.00 0.00 80 1022.6
20260831083458 71 273 0.0 7.0 0.00 0.00 0.00 80 1022.6
20260831083342 71 273 0.0 7.0 0.00 0.00 0.00 80 1022.6
20260831083239 71 273 2.0 7.0 0.00 0.00 0.00 80 1022.6
20260831083215 70 273 2.0 7.0 0.00 0.00 0.00 80 1022.6
20260831083027 70 259 3.0 7.0 0.00 0.00 0.00 80 1022.6
20260831082841 70 279 5.0 8.0 0.00 0.00 0.00 80 1022.6
20260831082819 70 240 4.0 8.0 0.00 0.00 0.00 80 1022.6
20260831082648 70 263 2.0 8.0 0.00 0.00 0.00 81 1022.5
20260831081931 70 261 2.0 8.0 0.00 0.00 0.00 83 1022.5
20260831081639 70 222 3.0 8.0 0.00 0.00 0.00 83 1022.5
20260831081459 70 240 0.0 0.0 0.00 0.00 0.00 85 1022.6
20260831081451 70 240 0.0 0.0 0.00 0.00 0.00 85 1022.5
20260831080916 70 240 0.0 0.0 0.00 0.00 0.00 85 1022.5
20260831080845 70 240 0.0 0.0 0.00 0.00 0.00 86 1022.5
20260831080812 70 240 0.0 0.0 0.00 0.00 0.00 86 1022.5
20260831080648 69 240 0.0 0.0 0.00 0.00 0.00 86 1022.5
20260831080541 69 240 0.0 0.0 0.00 0.00 0.00 86 1022.5
20260831080416 69 240 0.0 0.0 0.00 0.00 0.00 86 1022.4
20260831080318 69 240 0.0 0.0 0.00 0.00 0.00 87 1022.5
20260831080243 69 240 0.0 0.0 0.00 0.00 0.00 88 1022.4
20260831075749 69 240 0.0 0.0 0.00 0.00 0.00 88 1022.4
20260831075649 69 240 0.0 0.0 0.00 0.00 0.00 88 1022.4
20260831075249 69 240 0.0 0.0 0.00 0.00 0.00 89 1022.5
20260831075149 68 240 0.0 0.0 0.00 0.00 0.00 90 1022.4
20260831075117 68 240 0.0 0.0 0.00 0.00 0.00 90 1022.4
20260831075034 68 240 0.0 0.0 0.00 0.00 0.00 90 1022.4
20260831074610 68 240 0.0 0.0 0.00 0.00 0.00 92 1022.4
20260831074557 68 240 0.0 0.0 0.00 0.00 0.00 92 1022.4
20260831074352 68 240 0.0 0.0 0.00 0.00 0.00 91 1022.3
20260831074014 67 240 0.0 0.0 0.00 0.00 0.00 92 1022.4
20260831073250 67 240 0.0 0.0 0.00 0.00 0.00 92 1022.3
20260831073158 67 240 0.0 0.0 0.00 0.00 0.00 92 1022.4
20260831073147 67 240 0.0 0.0 0.00 0.00 0.00 92 1022.3
20260831072929 67 240 0.0 0.0 0.00 0.00 0.00 93 1022.3
20260831072847 67 240 0.0 0.0 0.00 0.00 0.00 93 1022.3
20260831072823 67 240 0.0 0.0 0.00 0.00 0.00 93 1022.2
20260831072327 67 240 0.0 0.0 0.00 0.00 0.00 93 1022.3
20260831072225 66 240 0.0 0.0 0.00 0.00 0.00 94 1022.3
20260831072211 66 240 0.0 0.0 0.00 0.00 0.00 94 1022.3
20260831072013 66 240 0.0 0.0 0.00 0.00 0.00 94 1022.3
20260831071920 66 240 0.0 0.0 0.00 0.00 0.00 94 1022.2
20260831071905 66 240 0.0 0.0 0.00 0.00 0.00 94 1022.3
20260831071755 66 240 0.0 0.0 0.00 0.00 0.00 95 1022.3
20260831071103 66 240 0.0 0.0 0.00 0.00 0.00 95 1022.2
20260831070841 65 240 0.0 2.0 0.00 0.00 0.00 95 1022.2
20260831070825 66 265 0.0 0.0 0.00 0.00 0.00 92 1021.6
20260831070814 66 265 0.0 0.0 0.00 0.00 0.00 92 1021.6
20260831070639 65 240 0.0 2.0 0.00 0.00 0.00 95 1022.2
20260831070530 65 240 0.0 2.0 0.00 0.00 0.00 96 1022.2
20260831070334 66 265 0.0 0.0 0.00 0.00 0.00 92 1021.6
20260831070310 66 265 0.0 0.0 0.00 0.00 0.00 92 1021.5
20260831070241 65 240 0.0 2.0 0.00 0.00 0.00 96 1022.2
20260831070132 65 240 0.0 2.0 0.00 0.00 0.00 96 1022.2
20260831070110 65 240 0.0 2.0 0.00 0.00 0.00 96 1022.2
20260831065841 65 265 0.0 0.0 0.00 0.00 0.00 96 1022.2
20260831065626 65 265 0.0 0.0 0.00 0.00 0.00 96 1022.1
20260831065527 65 265 0.0 0.0 0.00 0.00 0.00 96 1022.2
20260831065329 65 265 0.0 0.0 0.00 0.00 0.00 96 1022.2
20260831065242 65 265 0.0 0.0 0.00 0.00 0.00 96 1022.1
20260831065038 65 265 0.0 0.0 0.00 0.00 0.00 96 1022.2
20260831064955 65 265 0.0 0.0 0.00 0.00 0.00 96 1022.1
20260831064630 65 265 0.0 0.0 0.00 0.00 0.00 97 1022.1
20260831064228 66 265 0.0 2.0 0.00 0.00 0.00 91 1021.6
20260831064054 64 265 0.0 0.0 0.00 0.00 0.00 97 1022.1
20260831063850 64 265 0.0 0.0 0.00 0.00 0.00 97 1022.1
20260831063805 64 265 0.0 0.0 0.00 0.00 0.00 97 1022.2
20260831063729 64 265 0.0 0.0 0.00 0.00 0.00 97 1022.1
20260831063647 64 265 0.0 0.0 0.00 0.00 0.00 97 1022.1
20260831063502 64 265 0.0 0.0 0.00 0.00 0.00 97 1022.1
20260831063402 63 265 0.0 0.0 0.00 0.00 0.00 97 1022.1
20260831062912 63 265 0.0 0.0 0.00 0.00 0.00 97 1022.1
20260831062852 63 265 0.0 0.0 0.00 0.00 0.00 97 1022.0
20260831062813 63 265 0.0 0.0 0.00 0.00 0.00 97 1022.0
20260831062626 63 265 0.0 0.0 0.00 0.00 0.00 97 1022.0
20260831062313 63 265 0.0 0.0 0.00 0.00 0.00 97 1022.0
20260831062105 62 265 0.0 0.0 0.00 0.00 0.00 97 1021.9
20260831062026 62 265 0.0 0.0 0.00 0.00 0.00 97 1022.0
20260831061951 62 265 0.0 0.0 0.00 0.00 0.00 97 1022.0
20260831061906 62 265 0.0 0.0 0.00 0.00 0.00 97 1022.0
20260831061741 62 265 0.0 0.0 0.00 0.00 0.00 97 1021.9
20260831061652 62 265 0.0 0.0 0.00 0.00 0.00 97 1021.9
20260831061240 62 265 0.0 0.0 0.00 0.00 0.00 97 1021.9
20260831061144 62 265 0.0 0.0 0.00 0.00 0.00 97 1022.0
20260831060416 62 265 0.0 0.0 0.00 0.00 0.00 96 1021.9
20260831060336 62 265 0.0 0.0 0.00 0.00 0.00 96 1021.8
20260831055929 62 265 0.0 0.0 0.00 0.00 0.00 96 1021.8
20260831055852 62 265 0.0 0.0 0.00 0.00 0.00 96 1021.8
20260831055831 62 265 0.0 0.0 0.00 0.00 0.00 96 1021.7
20260831055350 62 265 0.0 0.0 0.00 0.00 0.00 96 1021.7
20260831055050 61 265 0.0 0.0 0.00 0.00 0.00 96 1021.8
20260831054816 62 265 0.0 0.0 0.00 0.00 0.00 96 1021.7
20260831054721 62 265 0.0 0.0 0.00 0.00 0.00 96 1021.7
20260831054704 62 265 0.0 0.0 0.00 0.00 0.00 96 1021.7
20260831054625 62 265 0.0 0.0 0.00 0.00 0.00 96 1021.7
20260831054432 62 265 0.0 0.0 0.00 0.00 0.00 96 1021.7
20260831054142 62 265 0.0 0.0 0.00 0.00 0.00 96 1021.7
20260831053945 62 265 0.0 0.0 0.00 0.00 0.00 96 1021.7
20260831053857 62 265 0.0 0.0 0.00 0.00 0.00 96 1021.7
20260831053841 62 265 0.0 0.0 0.00 0.00 0.00 96 1021.7
20260831053343 61 265 0.0 0.0 0.00 0.00 0.00 96 1021.6
20260831053301 61 265 0.0 0.0 0.00 0.00 0.00 95 1021.6
20260831052810 61 265 0.0 0.0 0.00 0.00 0.00 95 1021.6
20260831052640 62 265 0.0 0.0 0.00 0.00 0.00 95 1021.6
20260831052623 62 265 0.0 0.0 0.00 0.00 0.00 95 1021.6
20260831052541 62 265 0.0 0.0 0.00 0.00 0.00 95 1021.5
20260831052027 62 265 0.0 0.0 0.00 0.00 0.00 96 1021.5
20260831051814 62 265 0.0 0.0 0.00 0.00 0.00 96 1021.5
20260831051743 67 265 0.0 2.0 0.00 0.00 0.00 91 1021.6
20260831051648 67 284 0.0 0.0 0.00 0.00 0.00 91 1021.6
20260831051634 67 284 0.0 0.0 0.00 0.00 0.00 91 1021.6
20260831051614 62 265 0.0 0.0 0.00 0.00 0.00 96 1021.5
20260831051545 62 265 0.0 0.0 0.00 0.00 0.00 96 1021.5
20260831051512 67 284 0.0 0.0 0.00 0.00 0.00 90 1021.5
20260831051431 62 265 0.0 0.0 0.00 0.00 0.00 96 1021.5
20260831051254 67 284 0.0 0.0 0.00 0.00 0.00 90 1021.5
20260831051243 68 284 0.0 0.0 0.00 0.00 0.00 90 1021.5
20260831051213 62 265 0.0 0.0 0.00 0.00 0.00 95 1021.4
20260831051147 68 284 0.0 0.0 0.00 0.00 0.00 89 1021.5
20260831051036 62 265 0.0 0.0 0.00 0.00 0.00 95 1021.4
20260831050807 62 265 0.0 0.0 0.00 0.00 0.00 95 1021.4
20260831050739 68 284 0.0 0.0 0.00 0.00 0.00 89 1021.5
20260831050714 68 284 0.0 0.0 0.00 0.00 0.00 88 1021.7
20260831050615 62 265 0.0 0.0 0.00 0.00 0.00 95 1021.4
20260831050551 62 265 0.0 0.0 0.00 0.00 0.00 95 1021.4
20260831050504 62 265 0.0 0.0 0.00 0.00 0.00 95 1021.4
20260831050336 62 265 0.0 0.0 0.00 0.00 0.00 95 1021.3
20260831050012 62 265 0.0 0.0 0.00 0.00 0.00 95 1021.3
20260831045811 62 265 0.0 0.0 0.00 0.00 0.00 95 1021.4
20260831045756 69 284 0.0 0.0 0.00 0.00 0.00 86 1021.7
20260831045707 69 284 0.0 0.0 0.00 0.00 0.00 86 1021.7
20260831045629 62 265 0.0 0.0 0.00 0.00 0.00 95 1021.4
20260831045614 62 265 0.0 0.0 0.00 0.00 0.00 95 1021.3
20260831045518 62 265 0.0 0.0 0.00 0.00 0.00 95 1021.3
20260831045312 62 265 0.0 0.0 0.00 0.00 0.00 95 1021.4
20260831045221 62 265 0.0 0.0 0.00 0.00 0.00 95 1021.3
20260831044613 63 265 0.0 0.0 0.00 0.00 0.00 95 1021.4
20260831044539 63 265 0.0 0.0 0.00 0.00 0.00 95 1021.4
20260831044433 63 265 0.0 0.0 0.00 0.00 0.00 95 1021.5
20260831044307 69 284 0.0 1.0 0.00 0.00 0.00 86 1021.7
20260831044210 63 265 0.0 0.0 0.00 0.00 0.00 95 1021.5
20260831044009 63 265 0.0 0.0 0.00 0.00 0.00 95 1021.4
20260831043811 62 265 0.0 0.0 0.00 0.00 0.00 95 1021.4
20260831043759 69 284 0.0 1.0 0.00 0.00 0.00 86 1021.7
20260831043718 69 256 0.0 0.0 0.00 0.00 0.00 86 1021.7
20260831043654 69 256 0.0 0.0 0.00 0.00 0.00 85 1021.7
20260831043610 62 265 0.0 0.0 0.00 0.00 0.00 95 1021.4
20260831043531 62 265 0.0 0.0 0.00 0.00 0.00 95 1021.4
20260831043435 62 265 0.0 0.0 0.00 0.00 0.00 95 1021.4
20260831043207 62 265 0.0 0.0 0.00 0.00 0.00 95 1021.4
20260831043048 63 265 0.0 0.0 0.00 0.00 0.00 95 1021.4
20260831042846 63 265 0.0 0.0 0.00 0.00 0.00 95 1021.4
20260831042807 63 265 0.0 0.0 0.00 0.00 0.00 95 1021.4
20260831042748 63 265 0.0 0.0 0.00 0.00 0.00 95 1021.4
20260831042711 63 265 0.0 0.0 0.00 0.00 0.00 95 1021.4
20260831042540 63 265 0.0 0.0 0.00 0.00 0.00 95 1021.4
20260831042456 63 265 0.0 0.0 0.00 0.00 0.00 95 1021.4
20260831041742 63 265 0.0 0.0 0.00 0.00 0.00 95 1021.4
20260831041715 63 265 0.0 0.0 0.00 0.00 0.00 95 1021.3
20260831041415 63 265 0.0 0.0 0.00 0.00 0.00 95 1021.4
20260831041322 63 265 0.0 0.0 0.00 0.00 0.00 94 1021.4
20260831040732 63 265 0.0 0.0 0.00 0.00 0.00 94 1021.4
20260831040603 63 265 0.0 0.0 0.00 0.00 0.00 95 1021.4
20260831040447 63 265 0.0 0.0 0.00 0.00 0.00 95 1021.4
20260831040011 63 265 0.0 0.0 0.00 0.00 0.00 94 1021.6
20260831035931 63 265 0.0 0.0 0.00 0.00 0.00 94 1021.5
20260831035529 63 265 0.0 0.0 0.00 0.00 0.00 94 1021.5
20260831035435 63 265 0.0 0.0 0.00 0.00 0.00 94 1021.5
20260831035346 63 265 0.0 0.0 0.00 0.00 0.00 94 1021.6
20260831035316 63 265 0.0 0.0 0.00 0.00 0.00 94 1021.5
20260831035004 63 265 0.0 0.0 0.00 0.00 0.00 93 1021.5
20260831034910 63 265 0.0 0.0 0.00 0.00 0.00 94 1021.5
20260831034556 63 265 0.0 0.0 0.00 0.00 0.00 94 1021.5
20260831034140 64 265 0.0 0.0 0.00 0.00 0.00 94 1021.5
20260831034059 64 265 0.0 0.0 0.00 0.00 0.00 94 1021.6
20260831033150 64 265 0.0 0.0 0.00 0.00 0.00 94 1021.7
20260831032616 64 265 0.0 0.0 0.00 0.00 0.00 93 1021.5
20260831032513 64 265 0.0 0.0 0.00 0.00 0.00 93 1021.6
20260831032420 64 265 0.0 0.0 0.00 0.00 0.00 93 1021.6
20260831032250 64 265 0.0 0.0 0.00 0.00 0.00 93 1021.6
20260831032159 64 265 0.0 0.0 0.00 0.00 0.00 93 1021.5
20260831031838 64 265 0.0 0.0 0.00 0.00 0.00 93 1021.6
20260831031651 64 265 0.0 0.0 0.00 0.00 0.00 93 1021.5
20260831031618 64 265 0.0 0.0 0.00 0.00 0.00 93 1021.5
20260831031527 64 265 0.0 0.0 0.00 0.00 0.00 93 1021.5
20260831031350 64 265 0.0 0.0 0.00 0.00 0.00 93 1021.5
20260831031257 64 265 0.0 0.0 0.00 0.00 0.00 93 1021.5
20260831031006 64 265 0.0 0.0 0.00 0.00 0.00 93 1021.5
20260831030511 64 265 0.0 0.0 0.00 0.00 0.00 93 1021.5
20260831030409 64 265 0.0 0.0 0.00 0.00 0.00 93 1021.5
20260831030208 64 265 0.0 0.0 0.00 0.00 0.00 93 1021.5
20260831030152 69 256 0.0 0.0 0.00 0.00 0.00 85 1021.5
20260831030008 64 265 0.0 0.0 0.00 0.00 0.00 93 1021.4
20260831025829 65 265 0.0 0.0 0.00 0.00 0.00 93 1021.5
20260831025702 69 256 0.0 0.0 0.00 0.00 0.00 83 1021.5
20260831025644 69 256 0.0 0.0 0.00 0.00 0.00 83 1021.5
20260831025609 65 265 0.0 0.0 0.00 0.00 0.00 93 1021.6
20260831025503 65 265 0.0 0.0 0.00 0.00 0.00 93 1021.6
20260831025417 65 265 0.0 0.0 0.00 0.00 0.00 93 1021.6
20260831025209 65 265 0.0 0.0 0.00 0.00 0.00 93 1021.5
20260831025127 69 256 0.0 0.0 0.00 0.00 0.00 83 1021.5
20260831025112 69 256 0.0 0.0 0.00 0.00 0.00 83 1021.3
20260831025021 65 265 0.0 0.0 0.00 0.00 0.00 93 1021.5
20260831024927 69 256 0.0 0.0 0.00 0.00 0.00 83 1021.2
20260831024843 65 265 0.0 0.0 0.00 0.00 0.00 93 1021.5
20260831024655 69 256 0.0 0.0 0.00 0.00 0.00 82 1021.1
20260831024608 65 265 0.0 0.0 0.00 0.00 0.00 93 1021.5
20260831024512 65 265 0.0 0.0 0.00 0.00 0.00 93 1021.6
20260831024454 65 265 0.0 0.0 0.00 0.00 0.00 93 1021.6
20260831024325 65 265 0.0 0.0 0.00 0.00 0.00 93 1021.5
20260831024240 65 265 0.0 0.0 0.00 0.00 0.00 93 1021.5
20260831024232 65 265 0.0 0.0 0.00 0.00 0.00 93 1021.5
20260831023755 65 265 0.0 0.0 0.00 0.00 0.00 93 1021.5
20260831023722 65 265 0.0 0.0 0.00 0.00 0.00 93 1021.6
20260831023659 65 265 0.0 0.0 0.00 0.00 0.00 93 1021.5
20260831023542 65 265 0.0 0.0 0.00 0.00 0.00 93 1021.5
20260831023502 65 265 0.0 0.0 0.00 0.00 0.00 93 1021.6
20260831023141 65 265 0.0 0.0 0.00 0.00 0.00 93 1021.5
20260831022715 65 265 0.0 0.0 0.00 0.00 0.00 93 1021.5
20260831022659 65 265 0.0 0.0 0.00 0.00 0.00 93 1021.6
20260831022209 65 265 0.0 0.0 0.00 0.00 0.00 93 1021.5
20260831021828 65 265 0.0 0.0 0.00 0.00 0.00 93 1021.5
20260831021654 69 256 0.0 0.0 0.00 0.00 0.00 81 1021.0
20260831021613 65 265 0.0 0.0 0.00 0.00 0.00 93 1021.6
20260831021417 65 265 0.0 0.0 0.00 0.00 0.00 93 1021.6
20260831021218 65 265 0.0 0.0 0.00 0.00 0.00 93 1021.6
20260831021113 65 265 0.0 0.0 0.00 0.00 0.00 92 1021.5
20260831021052 65 265 0.0 0.0 0.00 0.00 0.00 92 1021.5
20260831020707 69 256 0.0 0.0 0.00 0.00 0.00 81 1021.0
20260831020629 69 256 0.0 0.0 0.00 0.00 0.00 81 1021.0
20260831020608 65 265 0.0 0.0 0.00 0.00 0.00 93 1021.5
20260831020446 65 265 0.0 0.0 0.00 0.00 0.00 92 1021.5
20260831020421 66 265 0.0 0.0 0.00 0.00 0.00 92 1021.5
20260831020240 66 265 0.0 0.0 0.00 0.00 0.00 92 1021.6
20260831020147 66 265 0.0 0.0 0.00 0.00 0.00 92 1021.5
20260831015906 69 256 0.0 0.0 0.00 0.00 0.00 81 1020.8
20260831015828 66 265 0.0 0.0 0.00 0.00 0.00 92 1021.6
20260831015633 69 256 0.0 0.0 0.00 0.00 0.00 80 1020.9
20260831015559 66 265 0.0 0.0 0.00 0.00 0.00 92 1021.6
20260831015439 66 265 0.0 0.0 0.00 0.00 0.00 92 1021.5
20260831015423 66 265 0.0 0.0 0.00 0.00 0.00 92 1021.5
20260831015251 66 265 0.0 0.0 0.00 0.00 0.00 92 1021.6
20260831015139 66 265 0.0 0.0 0.00 0.00 0.00 92 1021.5
20260831015120 66 265 0.0 0.0 0.00 0.00 0.00 92 1021.6
20260831015043 66 265 0.0 0.0 0.00 0.00 0.00 92 1021.6
20260831014903 66 265 0.0 0.0 0.00 0.00 0.00 92 1021.6
20260831014553 66 265 0.0 0.0 0.00 0.00 0.00 92 1021.5
20260831014109 66 265 0.0 0.0 0.00 0.00 0.00 92 1021.6
20260831014040 66 265 0.0 0.0 0.00 0.00 0.00 92 1021.5
20260831013551 66 265 0.0 0.0 0.00 0.00 0.00 92 1021.5
20260831013538 66 265 0.0 0.0 0.00 0.00 0.00 92 1021.5
20260831013054 66 265 0.0 0.0 0.00 0.00 0.00 92 1021.5
20260831013038 66 265 0.0 0.0 0.00 0.00 0.00 92 1021.4
20260831013005 66 265 0.0 0.0 0.00 0.00 0.00 92 1021.6
20260831012610 66 265 0.0 0.0 0.00 0.00 0.00 91 1021.6
20260831012515 66 265 0.0 0.0 0.00 0.00 0.00 92 1021.7
20260831012501 66 265 0.0 0.0 0.00 0.00 0.00 92 1021.6
20260831012307 66 265 0.0 2.0 0.00 0.00 0.00 92 1021.7
20260831011934 67 265 0.0 2.0 0.00 0.00 0.00 91 1021.7
20260831011841 67 265 0.0 2.0 0.00 0.00 0.00 91 1021.7
20260831011708 67 265 0.0 2.0 0.00 0.00 0.00 91 1021.6
20260831011347 67 265 0.0 2.0 0.00 0.00 0.00 91 1021.5
20260831011148 67 284 0.0 0.0 0.00 0.00 0.00 91 1021.6
20260831011027 67 284 0.0 0.0 0.00 0.00 0.00 91 1021.6
20260831011010 67 284 0.0 0.0 0.00 0.00 0.00 91 1021.7
20260831010930 67 284 0.0 0.0 0.00 0.00 0.00 91 1021.6
20260831010755 67 284 0.0 0.0 0.00 0.00 0.00 91 1021.6
20260831010454 67 284 0.0 0.0 0.00 0.00 0.00 91 1021.6
20260831010303 67 284 0.0 0.0 0.00 0.00 0.00 91 1021.6
20260831005932 67 284 0.0 0.0 0.00 0.00 0.00 91 1021.7
20260831005845 67 284 0.0 0.0 0.00 0.00 0.00 91 1021.6
20260831005713 67 284 0.0 0.0 0.00 0.00 0.00 91 1021.6
20260831005422 67 284 0.0 0.0 0.00 0.00 0.00 90 1021.7
20260831005341 67 284 0.0 0.0 0.00 0.00 0.00 90 1021.6
20260831005215 67 284 0.0 0.0 0.00 0.00 0.00 90 1021.5
20260831005050 67 284 0.0 0.0 0.00 0.00 0.00 90 1021.5
20260831004523 67 284 0.0 0.0 0.00 0.00 0.00 90 1021.5
20260831004451 67 284 0.0 0.0 0.00 0.00 0.00 90 1021.4
20260831004427 67 284 0.0 0.0 0.00 0.00 0.00 90 1021.5
20260831004306 67 284 0.0 0.0 0.00 0.00 0.00 90 1021.6
20260831004218 67 284 0.0 0.0 0.00 0.00 0.00 90 1021.5
20260831003909 67 284 0.0 0.0 0.00 0.00 0.00 90 1021.5
20260831003406 68 284 0.0 0.0 0.00 0.00 0.00 90 1021.6
20260831003318 68 284 0.0 0.0 0.00 0.00 0.00 89 1021.6
20260831003110 68 284 0.0 0.0 0.00 0.00 0.00 89 1021.5
20260831002957 68 284 0.0 0.0 0.00 0.00 0.00 89 1021.6
20260831002917 68 284 0.0 0.0 0.00 0.00 0.00 89 1021.6
20260831002718 68 284 0.0 0.0 0.00 0.00 0.00 89 1021.6
20260831002404 68 284 0.0 0.0 0.00 0.00 0.00 89 1021.7
20260831002218 68 284 0.0 0.0 0.00 0.00 0.00 89 1021.5
20260831001916 68 284 0.0 0.0 0.00 0.00 0.00 89 1021.5
20260831001748 68 284 0.0 0.0 0.00 0.00 0.00 88 1021.5
20260831001507 68 284 0.0 0.0 0.00 0.00 0.00 88 1021.6
20260831001418 68 284 0.0 0.0 0.00 0.00 0.00 89 1021.7
20260831001343 68 284 0.0 0.0 0.00 0.00 0.00 88 1021.7
20260831001146 68 284 0.0 0.0 0.00 0.00 0.00 88 1021.5
20260831001042 68 284 0.0 0.0 0.00 0.00 0.00 88 1021.7
20260831000504 68 284 0.0 0.0 0.00 0.00 0.00 88 1021.8
20260831000425 70 256 0.0 0.0 0.00 0.00 0.00 79 1020.8
20260831000410 68 284 0.0 0.0 0.00 0.00 0.00 88 1021.7
20260831000318 68 284 0.0 0.0 0.00 0.00 0.00 88 1021.7
20260831000107 68 284 0.0 0.0 0.00 0.00 0.00 88 1021.7
20260830235931 68 284 0.0 0.0 0.00 0.00 0.00 88 1021.6
20260830235921 68 284 0.0 0.0 0.00 0.00 0.00 88 1021.6
20260830235831 68 284 0.0 0.0 0.00 0.00 0.00 88 1021.7
20260830235710 68 284 0.0 0.0 0.00 0.00 0.00 87 1021.7
20260830235438 70 256 0.0 0.0 0.00 0.00 0.00 79 1020.7
20260830235355 68 284 0.0 0.0 0.00 0.00 0.00 87 1021.7
20260830235314 68 284 0.0 0.0 0.00 0.00 0.00 87 1021.7
20260830235107 68 284 0.0 0.0 0.00 0.00 0.00 87 1021.7
20260830234910 68 284 0.0 0.0 0.00 0.00 0.00 87 1021.8
20260830234846 68 284 0.0 0.0 0.00 0.00 0.00 87 1021.8
20260830234747 68 284 0.0 0.0 0.00 0.00 0.00 87 1021.7
20260830234552 69 284 0.0 0.0 0.00 0.00 0.00 87 1021.7
20260830234517 68 284 0.0 0.0 0.00 0.00 0.00 87 1021.7
20260830234459 69 284 0.0 0.0 0.00 0.00 0.00 87 1021.7
20260830234333 69 284 0.0 0.0 0.00 0.00 0.00 87 1021.8
20260830234237 69 284 0.0 0.0 0.00 0.00 0.00 86 1021.7
20260830234221 69 284 0.0 0.0 0.00 0.00 0.00 86 1021.7
20260830234145 69 284 0.0 0.0 0.00 0.00 0.00 86 1021.7
20260830234033 69 284 0.0 0.0 0.00 0.00 0.00 86 1021.7
20260830233933 69 284 0.0 0.0 0.00 0.00 0.00 86 1021.7
20260830233108 69 284 0.0 1.0 0.00 0.00 0.00 86 1021.7
20260830232640 69 284 0.0 1.0 0.00 0.00 0.00 86 1021.7
20260830232531 69 284 0.0 1.0 0.00 0.00 0.00 86 1021.8
20260830232404 69 284 0.0 1.0 0.00 0.00 0.00 86 1021.7
20260830232249 69 256 0.0 0.0 0.00 0.00 0.00 86 1021.8
20260830231712 69 256 0.0 0.0 0.00 0.00 0.00 85 1021.7
20260830231536 69 256 0.0 0.0 0.00 0.00 0.00 85 1021.6
20260830231356 69 256 0.0 0.0 0.00 0.00 0.00 85 1021.7
20260830231313 69 256 0.0 0.0 0.00 0.00 0.00 85 1021.7
20260830231114 69 256 0.0 0.0 0.00 0.00 0.00 85 1021.7
20260830231055 69 256 0.0 0.0 0.00 0.00 0.00 85 1021.6
20260830230619 69 256 0.0 0.0 0.00 0.00 0.00 85 1021.6
20260830230536 69 256 0.0 0.0 0.00 0.00 0.00 85 1021.7
20260830230210 69 256 0.0 0.0 0.00 0.00 0.00 85 1021.6
20260830230020 69 256 0.0 0.0 0.00 0.00 0.00 85 1021.6
20260830230004 69 256 0.0 0.0 0.00 0.00 0.00 85 1021.6
20260830225503 69 256 0.0 0.0 0.00 0.00 0.00 84 1021.5
20260830225403 70 250 0.0 4.0 0.00 0.00 0.00 78 1020.6
20260830225309 69 256 0.0 0.0 0.00 0.00 0.00 84 1021.6
20260830225207 69 256 0.0 0.0 0.00 0.00 0.00 84 1021.6
20260830225009 70 269 4.0 7.0 0.00 0.00 0.00 76 1020.4
20260830224910 69 256 0.0 0.0 0.00 0.00 0.00 84 1021.5
20260830224832 69 256 0.0 0.0 0.00 0.00 0.00 84 1021.4
20260830224737 69 256 0.0 0.0 0.00 0.00 0.00 84 1021.4
20260830224526 69 256 0.0 0.0 0.00 0.00 0.00 84 1021.5
20260830224456 70 263 2.0 7.0 0.00 0.00 0.00 77 1020.4
20260830224332 69 256 0.0 0.0 0.00 0.00 0.00 84 1021.5
20260830224309 69 256 0.0 0.0 0.00 0.00 0.00 84 1021.6
20260830224249 70 270 5.0 8.0 0.00 0.00 0.00 76 1020.3
20260830224203 69 256 0.0 0.0 0.00 0.00 0.00 84 1021.5
20260830223940 69 256 0.0 0.0 0.00 0.00 0.00 84 1021.5
20260830223920 69 256 0.0 0.0 0.00 0.00 0.00 84 1021.6
20260830223848 69 256 0.0 0.0 0.00 0.00 0.00 84 1021.6
20260830223642 69 256 0.0 0.0 0.00 0.00 0.00 84 1021.5
20260830223536 69 256 0.0 0.0 0.00 0.00 0.00 84 1021.5
20260830223451 69 256 0.0 0.0 0.00 0.00 0.00 84 1021.5
20260830223257 69 256 0.0 0.0 0.00 0.00 0.00 84 1021.5
20260830223237 69 256 0.0 0.0 0.00 0.00 0.00 84 1021.4
20260830223205 69 256 0.0 0.0 0.00 0.00 0.00 84 1021.5
20260830223102 69 256 0.0 0.0 0.00 0.00 0.00 83 1021.5
20260830223024 69 256 0.0 0.0 0.00 0.00 0.00 84 1021.4
20260830223007 69 256 0.0 0.0 0.00 0.00 0.00 84 1021.5
20260830222420 69 256 0.0 0.0 0.00 0.00 0.00 83 1021.4
20260830222348 69 256 0.0 0.0 0.00 0.00 0.00 83 1021.4
20260830222305 69 256 0.0 0.0 0.00 0.00 0.00 83 1021.4
20260830221957 69 256 0.0 0.0 0.00 0.00 0.00 83 1021.4
20260830221924 69 256 0.0 0.0 0.00 0.00 0.00 83 1021.4
20260830221838 69 256 0.0 0.0 0.00 0.00 0.00 83 1021.4
20260830221819 69 256 0.0 0.0 0.00 0.00 0.00 83 1021.3
20260830221758 69 256 0.0 0.0 0.00 0.00 0.00 83 1021.4
20260830221424 69 256 0.0 0.0 0.00 0.00 0.00 83 1021.3
20260830221350 69 256 0.0 0.0 0.00 0.00 0.00 83 1021.3
20260830221304 69 256 0.0 0.0 0.00 0.00 0.00 83 1021.3
20260830221252 69 256 0.0 0.0 0.00 0.00 0.00 83 1021.3
20260830220920 69 256 0.0 0.0 0.00 0.00 0.00 83 1021.3
20260830220829 69 256 0.0 0.0 0.00 0.00 0.00 83 1021.2
20260830220740 69 256 0.0 0.0 0.00 0.00 0.00 82 1021.1
20260830220631 69 256 0.0 0.0 0.00 0.00 0.00 82 1021.3
20260830220323 69 256 0.0 0.0 0.00 0.00 0.00 82 1021.1
20260830220228 69 256 0.0 0.0 0.00 0.00 0.00 82 1021.2
20260830220132 69 256 0.0 0.0 0.00 0.00 0.00 82 1021.2
20260830220103 69 256 0.0 0.0 0.00 0.00 0.00 82 1021.1
20260830215957 69 256 0.0 0.0 0.00 0.00 0.00 82 1021.1
20260830215940 69 256 0.0 0.0 0.00 0.00 0.00 82 1021.1
20260830215911 69 256 0.0 0.0 0.00 0.00 0.00 82 1021.1
20260830215825 69 256 0.0 0.0 0.00 0.00 0.00 82 1021.1
20260830215536 69 256 0.0 0.0 0.00 0.00 0.00 81 1021.0
20260830215458 69 256 0.0 0.0 0.00 0.00 0.00 81 1021.0
20260830215357 69 256 0.0 0.0 0.00 0.00 0.00 81 1021.0
20260830215326 69 256 0.0 0.0 0.00 0.00 0.00 81 1021.0
20260830215255 69 256 0.0 0.0 0.00 0.00 0.00 81 1021.0
20260830215216 69 256 0.0 0.0 0.00 0.00 0.00 81 1021.0
20260830214633 69 256 0.0 0.0 0.00 0.00 0.00 81 1020.9
20260830214530 69 256 0.0 0.0 0.00 0.00 0.00 81 1021.0
20260830214506 69 256 0.0 0.0 0.00 0.00 0.00 81 1020.9
20260830214441 69 256 0.0 0.0 0.00 0.00 0.00 81 1020.9
20260830214357 69 256 0.0 0.0 0.00 0.00 0.00 81 1020.8
20260830214058 69 256 0.0 0.0 0.00 0.00 0.00 81 1020.8
20260830214013 69 256 0.0 0.0 0.00 0.00 0.00 80 1020.8
20260830213429 69 256 0.0 0.0 0.00 0.00 0.00 80 1020.8
20260830213328 69 256 0.0 0.0 0.00 0.00 0.00 80 1020.8
20260830213233 70 256 0.0 0.0 0.00 0.00 0.00 80 1020.8
20260830212936 70 256 0.0 0.0 0.00 0.00 0.00 80 1020.8
20260830212842 70 256 0.0 0.0 0.00 0.00 0.00 79 1020.8
20260830212551 70 256 0.0 0.0 0.00 0.00 0.00 79 1020.8
20260830211947 70 256 0.0 0.0 0.00 0.00 0.00 79 1020.7
20260830211903 70 256 0.0 0.0 0.00 0.00 0.00 79 1020.7
20260830211819 70 256 0.0 1.0 0.00 0.00 0.00 79 1020.8
20260830211752 70 256 0.0 1.0 0.00 0.00 0.00 79 1020.7
20260830211418 70 256 0.0 1.0 0.00 0.00 0.00 79 1020.7
20260830211336 70 256 0.0 3.0 0.00 0.00 0.00 79 1020.6
20260830211330 70 256 0.0 3.0 0.00 0.00 0.00 79 1020.6
20260830211238 70 256 0.0 3.0 0.00 0.00 0.00 78 1020.7
20260830211104 70 256 0.0 3.0 0.00 0.00 0.00 78 1020.6
20260830211023 70 256 1.0 4.0 0.00 0.00 0.00 78 1020.7
20260830210854 70 256 1.0 4.0 0.00 0.00 0.00 78 1020.6
20260830210525 70 250 0.0 4.0 0.00 0.00 0.00 78 1020.6
20260830210423 70 250 1.0 4.0 0.00 0.00 0.00 78 1020.6
20260830210257 70 247 3.0 5.0 0.00 0.00 0.00 78 1020.6
20260830210231 70 273 3.0 5.0 0.00 0.00 0.00 78 1020.7
20260830210115 70 250 3.0 7.0 0.00 0.00 0.00 77 1020.5
20260830205932 70 267 3.0 7.0 0.00 0.00 0.00 77 1020.5
20260830205819 70 257 3.0 7.0 0.00 0.00 0.00 77 1020.5
20260830205745 70 282 3.0 7.0 0.00 0.00 0.00 77 1020.6
20260830205605 70 253 3.0 7.0 0.00 0.00 0.00 77 1020.4
20260830205431 70 269 4.0 7.0 0.00 0.00 0.00 77 1020.4
20260830205356 70 272 3.0 7.0 0.00 0.00 0.00 77 1020.4
20260830205240 70 267 2.0 7.0 0.00 0.00 0.00 77 1020.5
20260830205103 70 275 2.0 7.0 0.00 0.00 0.00 77 1020.4
20260830204712 70 287 4.0 7.0 0.00 0.00 0.00 76 1020.5
20260830204150 70 235 2.0 7.0 0.00 0.00 0.00 77 1020.4